Regional Weather Roundup
Issued by NWS

Home | Current Version | Previous Version | Graphics & Text | Print | Product List | Glossary On
Versions: 1 2 3 4 5 6 7 8 9 10 11 12 13 14 15 16 17 18 19 20 21 22 23 24 25 26 27 28 29 30 31 32 33 34 35 36 37 38 39 40 41 42 43 44 45 46 47 48 49 50
000
ASUS44 KMEG 051600
RWRTN
TENNESSEE HOURLY STATE WEATHER ROUNDUP
NATIONAL WEATHER SERVICE MEMPHIS TN
1100 AM CDT THU MAY 05 2016

TNZ002-004-019-021-049-052-054-088>092-051700-
WEST TENNESSEE

CITY           SKY/WX    TMP DP  RH WIND       PRES   REMARKS
MEMPHIS INTL   MOSUNNY   68  43  40 NW13      29.97S
NWS MEMPHIS      N/A     66 N/A N/A MISG        N/A
JACKSON        SUNNY     65  38  36 NW21G26   29.93S
DYERSBURG      SUNNY     63  39  42 N13G20    29.95S
UNION CITY     SUNNY     61  39  44 N20       29.94R
LEXINGTON      SUNNY     63  36  36 N13       29.89S
$$

TNZ008-025-027-028-033-062-065-066-051700-
NORTH MIDDLE TENNESSEE

CITY           SKY/WX    TMP DP  RH WIND       PRES   REMARKS
NASHVILLE      CLOUDY    57  38  48 NW17G30   29.85R
CLARKSVILLE    CLOUDY    54  40  59 N21G28    29.91R
COOKEVILLE     CLOUDY    50  46  87 NW8       29.80R
CROSSVILLE     LGT RAIN  47  40  76 W9G18     29.79S
$$

TNZ061-075-076-078-094-096-097-051700-
SOUTH MIDDLE TENNESSEE

CITY           SKY/WX    TMP DP  RH WIND       PRES   REMARKS
TULLAHOMA      MOSUNNY   57  39  51 NW16      29.82S
WINCHESTER     MOSUNNY   59  39  47 NW14      29.81F
MCMINNVILLE    PTSUNNY   57  43  58 NW9       29.80F
COLUMBIA       MOSUNNY   61  43  51 NW12      29.84S
SHELBYVILLE    MOSUNNY   63  41  45 NW21G31   29.84R
$$

TNZ017-018-042-046-047-051700-
NORTHEAST TENNESSEE

CITY           SKY/WX    TMP DP  RH WIND       PRES   REMARKS
TRI CITIES     LGT RAIN  47  38  71 N9        29.75S
$$

TNZ012-013-036-069-073-074-051700-
CENTRAL EAST TENNESSEE

CITY           SKY/WX    TMP DP  RH WIND       PRES   REMARKS
KNOXVILLE      LGT RAIN  49  43  80 W7        29.79S
OAK RIDGE      CLOUDY    51  43  74 VRB3      29.80S
GATLINBURG     PTSUNNY   50  41  71 W10       29.78R
$$

TNZ083-085-099-051700-
SOUTHEAST TENNESSEE

CITY           SKY/WX    TMP DP  RH WIND       PRES   REMARKS
CHATTANOOGA    PTSUNNY   59  41  51 NW7       29.80F
$$

SKY/WX REPORTED AS FAIR MEANS FEW OR NO CLOUDS BELOW
12 THOUSAND FEET.




USA.gov is the U.S. government's official web portal to all federal, state and local government web resources and services.